Location: Albany
(35.0170°S, 117.8920°E)
Time: 11:32:49
(UTC+08:00)

S-56A Canister/Altair - Pass Details

Date: 31 January 2021
Orbit: 631 x 2501 km, 38.9° (Epoch: 02 March)

Event Time Altitude Azimuth Distance (km) Brightness Sun altitude
Rises 09:52:45 0° 330° (NNW) 4,374 11.3 52.5°
Reaches altitude 10° 09:55:33 10° 338° (NNW) 3,642 11.1 53.0°
Maximum altitude 10:04:32 41° 44° (NE) 2,605 11.8 54.8°
Drops below altitude 10° 10:16:52 10° 106° (ESE) 4,980 12.2 57.1°
Sets 10:21:23 0° 112° (ESE) 6,121 12.4 57.9°
